• In Hungary
  • List of Countries
  • For 7 days
  • Water Temperature
  • Satellite Maps
  • Weather Map
  • News
  • Weather Widgets
  • user-avatar
    Login

    Hourly Weather Las Vegas

    Today, 11 December, Monday

    Time Temperature Precipitation Wind Pressure Humidity
    00:00 +10°C° 0 mm 2 mps 716 mmHg 16%
    01:00 +10°C° 0 mm 2 mps 716 mmHg 18%
    02:00 +9°C° 0 mm 2 mps 716 mmHg 18%
    03:00 +9°C° 0 mm 2 mps 716 mmHg 18%
    04:00 +8°C° 0 mm 2 mps 717 mmHg 19%
    05:00 +8°C° 0 mm 2 mps 717 mmHg 19%
    06:00 +8°C° 0 mm 2 mps 717 mmHg 20%
    07:00 +7°C° 0 mm 2 mps 716 mmHg 20%
    08:00 +10°C° 0 mm 2 mps 717 mmHg 16%
    09:00 +14°C° 0 mm 2 mps 717 mmHg 12%
    10:00 +16°C° 0 mm 2 mps 717 mmHg 8%
    11:00 +18°C° 0 mm 2 mps 717 mmHg 7%
    12:00 +19°C° 0 mm 2 mps 716 mmHg 6%
    13:00 +20°C° 0 mm 2 mps 716 mmHg 6%
    14:00 +19°C° 0 mm 2 mps 716 mmHg 7%
    15:00 +18°C° 0 mm 2 mps 715 mmHg 8%
    16:00 +16°C° 0 mm 1 mps 715 mmHg 9%
    17:00 +15°C° 0 mm 1 mps 715 mmHg 9%
    18:00 +14°C° 0 mm 1 mps 715 mmHg 9%
    19:00 +13°C° 0 mm 1 mps 715 mmHg 10%
    20:00 +12°C° 0 mm 1 mps 715 mmHg 12%
    21:00 +12°C° 0 mm 2 mps 716 mmHg 14%
    22:00 +12°C° 0 mm 2 mps 716 mmHg 16%
    23:00 +10°C° 0 mm 2 mps 716 mmHg 17%

    Tomorrow, 12 December, Tuesday

    Time Temperature Precipitation Wind Pressure Humidity
    00:00 +10°C° 0 mm 2 mps 716 mmHg 17%
    01:00 +9°C° 0 mm 2 mps 716 mmHg 18%
    02:00 +9°C° 0 mm 2 mps 716 mmHg 19%
    03:00 +9°C° 0 mm 2 mps 716 mmHg 20%
    04:00 +9°C° 0 mm 2 mps 716 mmHg 21%
    05:00 +8°C° 0 mm 2 mps 716 mmHg 21%
    06:00 +9°C° 0 mm 1 mps 716 mmHg 21%
    07:00 +9°C° 0 mm 1 mps 716 mmHg 21%
    08:00 +12°C° 0 mm 1 mps 716 mmHg 17%
    09:00 +15°C° 0 mm 1 mps 716 mmHg 13%
    10:00 +18°C° 0 mm 2 mps 717 mmHg 8%
    11:00 +19°C° 0 mm 2 mps 716 mmHg 8%
    12:00 +20°C° 0 mm 2 mps 715 mmHg 7%
    13:00 +21°C° 0 mm 2 mps 715 mmHg 7%
    14:00 +21°C° 0 mm 1 mps 714 mmHg 8%
    15:00 +19°C° 0 mm 1 mps 713 mmHg 10%
    16:00 +18°C° 0 mm 1 mps 712 mmHg 11%
    17:00 +16°C° 0 mm 1 mps 712 mmHg 12%
    18:00 +15°C° 0 mm 1 mps 712 mmHg 12%
    19:00 +14°C° 0 mm 1 mps 712 mmHg 13%
    20:00 +13°C° 0 mm 1 mps 712 mmHg 14%
    21:00 +13°C° 0 mm 1 mps 712 mmHg 15%
    22:00 +13°C° 0 mm 1 mps 712 mmHg 16%
    23:00 +12°C° 0 mm 1 mps 712 mmHg 17%

    Day after tomorrow, 13 December, Wednesday

    Time Temperature Precipitation Wind Pressure Humidity
    00:00 +12°C° 0 mm 1 mps 712 mmHg 19%
    01:00 +12°C° 0 mm 1 mps 712 mmHg 21%
    02:00 +11°C° 0 mm 1 mps 711 mmHg 22%
    03:00 +11°C° 0 mm 1 mps 711 mmHg 23%
    04:00 +11°C° 0 mm 1 mps 711 mmHg 24%
    05:00 +10°C° 0 mm 1 mps 711 mmHg 25%
    06:00 +10°C° 0 mm 1 mps 711 mmHg 26%
    07:00 +10°C° 0 mm 1 mps 711 mmHg 28%
    08:00 +13°C° 0 mm 1 mps 711 mmHg 22%
    09:00 +16°C° 0 mm 1 mps 712 mmHg 17%
    10:00 +20°C° 0 mm 1 mps 712 mmHg 11%
    11:00 +21°C° 0 mm 1 mps 712 mmHg 10%
    12:00 +22°C° 0 mm 1 mps 711 mmHg 9%
    13:00 +23°C° 0 mm 1 mps 711 mmHg 8%
    14:00 +21°C° 0 mm 1 mps 710 mmHg 10%
    15:00 +20°C° 0 mm 1 mps 710 mmHg 11%
    16:00 +19°C° 0 mm 1 mps 709 mmHg 12%
    17:00 +18°C° 0 mm 1 mps 709 mmHg 12%
    18:00 +16°C° 0 mm 1 mps 710 mmHg 12%
    19:00 +14°C° 0 mm 1 mps 710 mmHg 12%
    20:00 +14°C° 0 mm 1 mps 710 mmHg 12%
    21:00 +14°C° 0 mm 1 mps 710 mmHg 12%
    22:00 +13°C° 0 mm 2 mps 710 mmHg 12%
    23:00 +13°C° 0 mm 2 mps 711 mmHg 12%

    14 December, Thursday

    Time Temperature Precipitation Wind Pressure Humidity
    00:00 +13°C° 0 mm 2 mps 711 mmHg 13%
    01:00 +12°C° 0 mm 2 mps 711 mmHg 13%
    02:00 +12°C° 0 mm 2 mps 711 mmHg 14%
    03:00 +12°C° 0 mm 2 mps 711 mmHg 14%
    04:00 +10°C° 0 mm 2 mps 711 mmHg 15%
    05:00 +10°C° 0 mm 2 mps 711 mmHg 16%
    06:00 +10°C° 0 mm 2 mps 711 mmHg 17%
    07:00 +10°C° 0 mm 1 mps 712 mmHg 18%
    08:00 +13°C° 0 mm 2 mps 712 mmHg 15%
    09:00 +16°C° 0 mm 2 mps 713 mmHg 12%
    10:00 +19°C° 0 mm 2 mps 713 mmHg 9%
    11:00 +20°C° 0 mm 2 mps 713 mmHg 9%
    12:00 +21°C° 0 mm 2 mps 713 mmHg 8%
    13:00 +23°C° 0 mm 2 mps 712 mmHg 8%
    14:00 +20°C° 0 mm 2 mps 712 mmHg 10%
    15:00 +20°C° 0 mm 1 mps 712 mmHg 11%
    16:00 +19°C° 0 mm 1 mps 711 mmHg 13%
    17:00 +18°C° 0 mm 1 mps 711 mmHg 14%
    18:00 +16°C° 0 mm 1 mps 712 mmHg 15%
    19:00 +15°C° 0 mm 1 mps 712 mmHg 16%
    20:00 +14°C° 0 mm 1 mps 712 mmHg 17%
    21:00 +14°C° 0 mm 1 mps 712 mmHg 18%
    22:00 +14°C° 0 mm 1 mps 712 mmHg 18%
    23:00 +13°C° 0 mm 1 mps 712 mmHg 19%

    15 December, Friday

    Time Temperature Precipitation Wind Pressure Humidity
    00:00 +13°C° 0 mm 1 mps 712 mmHg 21%
    01:00 +12°C° 0 mm 1 mps 712 mmHg 22%
    02:00 +12°C° 0 mm 1 mps 712 mmHg 24%
    03:00 +11°C° 0 mm 1 mps 711 mmHg 26%
    04:00 +11°C° 0 mm 1 mps 711 mmHg 28%
    05:00 +10°C° 0 mm 1 mps 711 mmHg 29%
    06:00 +10°C° 0 mm 1 mps 711 mmHg 30%
    07:00 +9°C° 0 mm 0 mps 711 mmHg 30%
    08:00 +12°C° 0 mm 0 mps 712 mmHg 25%
    09:00 +14°C° 0 mm 0 mps 712 mmHg 20%
    10:00 +19°C° 0 mm 1 mps 712 mmHg 15%
    11:00 +20°C° 0 mm 1 mps 711 mmHg 14%
    12:00 +21°C° 0 mm 1 mps 711 mmHg 13%
    13:00 +22°C° 0 mm 1 mps 710 mmHg 12%
    14:00 +21°C° 0 mm 1 mps 709 mmHg 13%
    15:00 +20°C° 0 mm 1 mps 709 mmHg 15%
    16:00 +19°C° 0 mm 1 mps 708 mmHg 16%
    17:00 +18°C° 0 mm 1 mps 708 mmHg 17%
    18:00 +15°C° 0 mm 1 mps 708 mmHg 18%
    19:00 +13°C° 0 mm 0 mps 708 mmHg 20%
    20:00 +13°C° 0 mm 0 mps 708 mmHg 20%
    21:00 +13°C° 0 mm 0 mps 708 mmHg 20%
    22:00 +13°C° 0 mm 0 mps 708 mmHg 20%
    23:00 +14°C° 0 mm 1 mps 707 mmHg 20%

    16 December, Saturday

    Time Temperature Precipitation Wind Pressure Humidity
    00:00 +14°C° 0 mm 1 mps 707 mmHg 20%
    01:00 +14°C° 0 mm 1 mps 707 mmHg 19%
    02:00 +14°C° 0 mm 1 mps 707 mmHg 20%
    03:00 +13°C° 0 mm 1 mps 706 mmHg 20%
    04:00 +13°C° 0 mm 1 mps 706 mmHg 20%
    05:00 +12°C° 0 mm 1 mps 706 mmHg 22%
    06:00 +12°C° 0 mm 1 mps 707 mmHg 24%
    07:00 +11°C° 0 mm 1 mps 707 mmHg 26%
    08:00 +14°C° 0 mm 1 mps 708 mmHg 22%
    09:00 +16°C° 0 mm 1 mps 708 mmHg 18%
    10:00 +20°C° 0 mm 1 mps 709 mmHg 14%
    11:00 +20°C° 0 mm 2 mps 709 mmHg 14%
    12:00 +21°C° 0 mm 2 mps 708 mmHg 13%
    13:00 +23°C° 0 mm 2 mps 708 mmHg 12%
    14:00 +21°C° 0 mm 3 mps 708 mmHg 13%
    15:00 +20°C° 0 mm 3 mps 708 mmHg 13%
    16:00 +19°C° 0 mm 3 mps 708 mmHg 14%
    17:00 +18°C° 0 mm 3 mps 708 mmHg 15%
    18:00 +16°C° 0 mm 2 mps 708 mmHg 16%
    19:00 +15°C° 0 mm 2 mps 709 mmHg 18%
    20:00 +14°C° 0 mm 2 mps 709 mmHg 19%
    21:00 +13°C° 0 mm 2 mps 710 mmHg 20%
    22:00 +13°C° 0 mm 2 mps 710 mmHg 21%
    23:00 +12°C° 0 mm 2 mps 710 mmHg 23%
    Show more